When you browse on this site, cookies collect data to enhance your experience and personalize the content and advertising you see.
Visit our Privacy Policy to learn more. By continuing to use the site, you agree to this use of cookies and data.
  • In Österreich
  • Länderverzeichnis
  • Für 7 Tage
  • Wassertemperatur
  • Wetterkarte
  • News
  • Widgets
  • user-avatar
    Anmelden

    Stündliche Wetter Semmering

    Heute, 27 Mai, Mittwoch

    Zeit Temperatur Niederschläge Wind Luftdruck Luftfeuchtigkeit
    00:00 +3°C° 0 mm 2 m/S 673 mmHg 92%
    01:00 +3°C° 0 mm 2 m/S 672 mmHg 94%
    02:00 +3°C° 0 mm 2 m/S 672 mmHg 94%
    03:00 +2°C° 0 mm 2 m/S 672 mmHg 94%
    04:00 +2°C° 0 mm 2 m/S 672 mmHg 94%
    05:00 +4°C° 0 mm 2 m/S 673 mmHg 88%
    06:00 +4°C° 0 mm 3 m/S 673 mmHg 82%
    07:00 +7°C° 0 mm 3 m/S 673 mmHg 77%
    08:00 +8°C° 0 mm 3 m/S 674 mmHg 68%
    09:00 +10°C° 0 mm 3 m/S 674 mmHg 59%
    10:00 +11°C° 0 mm 4 m/S 674 mmHg 51%
    11:00 +12°C° 0 mm 4 m/S 674 mmHg 49%
    12:00 +13°C° 0 mm 4 m/S 674 mmHg 47%
    13:00 +13°C° 0 mm 4 m/S 673 mmHg 44%
    14:00 +13°C° 0 mm 4 m/S 673 mmHg 46%
    15:00 +13°C° 0 mm 4 m/S 673 mmHg 47%
    16:00 +13°C° 0 mm 4 m/S 672 mmHg 48%
    17:00 +12°C° 0 mm 3 m/S 672 mmHg 57%
    18:00 +10°C° 0 mm 2 m/S 671 mmHg 67%
    19:00 +9°C° 0 mm 2 m/S 671 mmHg 76%
    20:00 +8°C° 0 mm 2 m/S 671 mmHg 80%
    21:00 +6°C° 0 mm 2 m/S 671 mmHg 84%
    22:00 +5°C° 0 mm 2 m/S 671 mmHg 88%
    23:00 +5°C° 0 mm 2 m/S 671 mmHg 88%

    Morgen, 28 Mai, Donnerstag

    Zeit Temperatur Niederschläge Wind Luftdruck Luftfeuchtigkeit
    00:00 +4°C° 0 mm 2 m/S 670 mmHg 88%
    01:00 +4°C° 0 mm 2 m/S 670 mmHg 88%
    02:00 +4°C° 0 mm 2 m/S 670 mmHg 88%
    03:00 +5°C° 0 mm 1 m/S 669 mmHg 87%
    04:00 +5°C° 0 mm 1 m/S 669 mmHg 87%
    05:00 +6°C° 0 mm 1 m/S 669 mmHg 84%
    06:00 +8°C° 0 mm 1 m/S 669 mmHg 81%
    07:00 +9°C° 0 mm 1 m/S 669 mmHg 78%
    08:00 +8°C° 0.1 mm 2 m/S 669 mmHg 77%
    09:00 +9°C° 0.1 mm 2 m/S 669 mmHg 76%
    10:00 +9°C° 0.1 mm 3 m/S 669 mmHg 75%
    11:00 +9°C° 0.5 mm 3 m/S 669 mmHg 78%
    12:00 +8°C° 0.5 mm 3 m/S 668 mmHg 82%
    13:00 +8°C° 0.5 mm 3 m/S 668 mmHg 85%
    14:00 +8°C° 0.3 mm 3 m/S 668 mmHg 84%
    15:00 +7°C° 0.3 mm 4 m/S 668 mmHg 82%
    16:00 +7°C° 0.3 mm 4 m/S 668 mmHg 81%
    17:00 +6°C° 0.1 mm 4 m/S 668 mmHg 82%
    18:00 +5°C° 0.1 mm 3 m/S 668 mmHg 84%
    19:00 +4°C° 0.1 mm 3 m/S 667 mmHg 86%
    20:00 +4°C° 0 mm 3 m/S 667 mmHg 88%
    21:00 +4°C° 0 mm 2 m/S 667 mmHg 90%
    22:00 +3°C° 0 mm 2 m/S 667 mmHg 92%
    23:00 +3°C° 0.2 mm 2 m/S 667 mmHg 93%

    übermorgen, 29 Mai, Freitag

    Zeit Temperatur Niederschläge Wind Luftdruck Luftfeuchtigkeit
    00:00 +3°C° 0.2 mm 2 m/S 667 mmHg 93%
    01:00 +4°C° 0.2 mm 2 m/S 667 mmHg 94%
    02:00 +4°C° 0.6 mm 2 m/S 667 mmHg 94%
    03:00 +4°C° 0.6 mm 2 m/S 667 mmHg 95%
    04:00 +4°C° 0.6 mm 2 m/S 667 mmHg 95%
    05:00 +4°C° 0.3 mm 2 m/S 667 mmHg 94%
    06:00 +4°C° 0.3 mm 3 m/S 667 mmHg 92%
    07:00 +4°C° 0.3 mm 3 m/S 667 mmHg 90%
    08:00 +5°C° 0.1 mm 3 m/S 667 mmHg 83%
    09:00 +8°C° 0.1 mm 3 m/S 667 mmHg 76%
    10:00 +8°C° 0.1 mm 4 m/S 668 mmHg 69%
    11:00 +9°C° 0.1 mm 3 m/S 667 mmHg 66%
    12:00 +10°C° 0.1 mm 3 m/S 667 mmHg 64%
    13:00 +11°C° 0.1 mm 3 m/S 667 mmHg 61%
    14:00 +10°C° 0.1 mm 3 m/S 667 mmHg 63%
    15:00 +10°C° 0.1 mm 3 m/S 667 mmHg 65%
    16:00 +10°C° 0.1 mm 3 m/S 666 mmHg 66%
    17:00 +9°C° 0.1 mm 3 m/S 666 mmHg 72%
    18:00 +8°C° 0.1 mm 2 m/S 666 mmHg 78%
    19:00 +7°C° 0.1 mm 2 m/S 665 mmHg 84%
    20:00 +6°C° 0.1 mm 2 m/S 665 mmHg 87%
    21:00 +6°C° 0.1 mm 1 m/S 665 mmHg 90%
    22:00 +5°C° 0.1 mm 1 m/S 665 mmHg 93%
    23:00 +5°C° 0.1 mm 1 m/S 665 mmHg 93%

    30 Mai, Samstag

    Zeit Temperatur Niederschläge Wind Luftdruck Luftfeuchtigkeit
    00:00 +5°C° 0.1 mm 1 m/S 665 mmHg 93%
    01:00 +5°C° 0.1 mm 1 m/S 665 mmHg 93%
    02:00 +4°C° 0 mm 2 m/S 665 mmHg 93%
    03:00 +3°C° 0 mm 2 m/S 665 mmHg 94%
    04:00 +3°C° 0 mm 2 m/S 664 mmHg 94%
    05:00 +4°C° 0 mm 2 m/S 665 mmHg 88%
    06:00 +4°C° 0 mm 2 m/S 665 mmHg 82%
    07:00 +4°C° 0 mm 3 m/S 665 mmHg 76%
    08:00 +5°C° 0 mm 3 m/S 665 mmHg 67%
    09:00 +6°C° 0 mm 4 m/S 666 mmHg 59%
    10:00 +7°C° 0 mm 4 m/S 666 mmHg 51%
    11:00 +8°C° 0 mm 4 m/S 666 mmHg 49%
    12:00 +10°C° 0 mm 4 m/S 666 mmHg 48%
    13:00 +10°C° 0 mm 4 m/S 666 mmHg 46%
    14:00 +10°C° 0 mm 4 m/S 665 mmHg 48%
    15:00 +10°C° 0 mm 4 m/S 665 mmHg 50%
    16:00 +10°C° 0 mm 4 m/S 665 mmHg 51%
    17:00 +8°C° 0.1 mm 3 m/S 665 mmHg 60%
    18:00 +7°C° 0.1 mm 3 m/S 664 mmHg 68%
    19:00 +6°C° 0.1 mm 2 m/S 664 mmHg 76%
    20:00 +5°C° 0 mm 2 m/S 664 mmHg 80%
    21:00 +4°C° 0 mm 2 m/S 664 mmHg 84%
    22:00 +3°C° 0 mm 2 m/S 664 mmHg 88%
    23:00 +3°C° 0 mm 2 m/S 664 mmHg 88%

    31 Mai, Sonntag

    Zeit Temperatur Niederschläge Wind Luftdruck Luftfeuchtigkeit
    00:00 +3°C° 0 mm 2 m/S 664 mmHg 88%
    01:00 +3°C° 0 mm 2 m/S 664 mmHg 87%
    02:00 +3°C° 0 mm 2 m/S 664 mmHg 88%
    03:00 +3°C° 0 mm 2 m/S 664 mmHg 89%
    04:00 +3°C° 0 mm 2 m/S 663 mmHg 90%
    05:00 +4°C° 0 mm 2 m/S 664 mmHg 84%
    06:00 +6°C° 0 mm 2 m/S 664 mmHg 78%
    07:00 +7°C° 0 mm 2 m/S 664 mmHg 72%
    08:00 +8°C° 0 mm 2 m/S 665 mmHg 67%
    09:00 +9°C° 0 mm 3 m/S 665 mmHg 62%
    10:00 +10°C° 0 mm 3 m/S 665 mmHg 57%
    11:00 +11°C° 0 mm 3 m/S 665 mmHg 55%
    12:00 +11°C° 0 mm 4 m/S 665 mmHg 53%
    13:00 +12°C° 0 mm 4 m/S 665 mmHg 50%
    14:00 +12°C° 0 mm 4 m/S 664 mmHg 53%
    15:00 +12°C° 0 mm 4 m/S 664 mmHg 56%
    16:00 +11°C° 0 mm 4 m/S 664 mmHg 60%
    17:00 +10°C° 0.1 mm 3 m/S 664 mmHg 67%
    18:00 +9°C° 0.1 mm 3 m/S 664 mmHg 74%
    19:00 +8°C° 0.1 mm 2 m/S 663 mmHg 82%
    20:00 +8°C° 0.1 mm 2 m/S 663 mmHg 85%
    21:00 +7°C° 0.1 mm 2 m/S 663 mmHg 87%
    22:00 +6°C° 0.1 mm 2 m/S 663 mmHg 90%
    23:00 +6°C° 0.3 mm 2 m/S 663 mmHg 91%

    1 Juni, Montag

    Zeit Temperatur Niederschläge Wind Luftdruck Luftfeuchtigkeit
    00:00 +6°C° 0.3 mm 2 m/S 663 mmHg 91%
    01:00 +7°C° 0.3 mm 3 m/S 663 mmHg 91%
    02:00 +5°C° 0.6 mm 3 m/S 663 mmHg 92%
    03:00 +5°C° 0.6 mm 3 m/S 663 mmHg 93%
    04:00 +5°C° 0.6 mm 3 m/S 662 mmHg 94%
    05:00 +7°C° 0.6 mm 3 m/S 663 mmHg 94%
    06:00 +7°C° 0.6 mm 2 m/S 663 mmHg 94%
    07:00 +7°C° 0.6 mm 2 m/S 663 mmHg 94%
    08:00 +8°C° 0 mm 2 m/S 663 mmHg 93%
    09:00 +8°C° 0 mm 2 m/S 663 mmHg 91%
    10:00 +9°C° 0 mm 2 m/S 664 mmHg 90%
    11:00 +10°C° 0 mm 3 m/S 664 mmHg 86%
    12:00 +11°C° 0 mm 3 m/S 664 mmHg 81%
    13:00 +12°C° 0 mm 3 m/S 664 mmHg 77%
    14:00 +12°C° 0 mm 3 m/S 664 mmHg 74%
    15:00 +13°C° 0 mm 3 m/S 664 mmHg 72%
    16:00 +14°C° 0 mm 3 m/S 664 mmHg 69%
    17:00 +13°C° 0.1 mm 3 m/S 664 mmHg 75%
    18:00 +13°C° 0.1 mm 2 m/S 663 mmHg 81%
    19:00 +12°C° 0.1 mm 2 m/S 663 mmHg 87%
    20:00 +10°C° 0 mm 2 m/S 663 mmHg 89%
    21:00 +9°C° 0 mm 2 m/S 663 mmHg 91%
    22:00 +7°C° 0 mm 2 m/S 663 mmHg 93%
    23:00 +7°C° 0 mm 2 m/S 663 mmHg 94%
    Mehr zeigen